CAPE
0 0 0 0 0 0 0 0 0 0 0 0 0 0 0 0 0 0 0 0 0 0 0 0 0 1015 766 983 1675 1538 1430 1179 1048 1117 1115 1027 1150 988 993 805 726 954 1123 1161 1300 1066 1033 933 698 702 713 672 708 704 714 658 710 864 846 800 920 780 877 802 741 831 601 724 720 720 785 806 715 821 1127 1349 1280 1037 1160 910 952 798 857 1002 860 905
0 0 0 0 0 0 0 0 0 0 0 0 0 0 0 0 0 0 0 0 0 0 0 0 1127 945 652 1191 1422 1502 1282 1386 1234 1203 1015 929 1098 744 677 714 1000 959 904 1238 1099 1003 1033 926 758 863 872 836 706 553 638 708 789 808 952 1008 818 803 736 790 867 858 784 754 669 550 499 886 882 1023 1182 1100 1005 1119 1085 986 662 815 505 494 456 474
0 0 0 0 0 0 0 0 0 0 0 0 0 0 0 0 0 0 0 0 0 0 0 864 1091 755 886 630 944 1267 1405 1476 1474 1261 981 814 858 773 562 817 1031 1007 1215 1199 1095 969 798 843 924 840 782 823 723 578 709 713 862 853 1032 1109 861 825 746 716 814 673 628 696 643 775 823 775 1067 891 966 907 1000 934 735 656 477 392 408 336 334 331
0 0 0 0 0 0 0 0 0 0 0 0 0 0 0 0 0 0 0 17 0 0 0 569 678 590 626 604 890 1205 882 980 1423 1250 986 932 722 650 724 981 1012 1095 925 846 745 764 645 840 992 723 650 673 634 653 643 980 985 979 942 843 849 899 937 699 674 937 1002 944 783 855 743 846 1038 1026 990 924 767 614 343 286 209 111 83 32 23 17
0 0 0 0 0 0 0 0 0 0 0 0 0 0 0 0 0 0 6 14 0 0 124 388 542 977 722 626 797 676 847 1271 1422 1344 1093 808 591 430 812 873 891 900 741 854 959 812 817 937 808 906 781 777 756 864 1046 1042 895 810 871 815 836 794 924 854 758 715 782 809 836 890 707 722 973 1026 923 664 506 304 161 88 60 15 4 0 0 0
0 0 0 0 0 0 0 0 0 0 0 0 0 0 0 0 0 0 0 1 0 0 0 379 527 616 731 684 778 1170 884 865 1073 934 982 871 568 575 874 664 420 798 881 877 965 965 902 722 720 776 879 864 934 960 1018 867 908 905 766 614 630 711 927 820 696 703 885 648 473 512 548 649 624 918 911 817 354 263 145 28 0 0 0 0 0 0
0 0 0 0 0 0 0 0 0 0 0 0 0 0 0 0 0 0 25 0 0 0 0 379 280 327 366 441 629 867 961 958 963 1004 1124 807 701 772 706 562 518 922 956 906 900 884 901 782 661 780 867 844 872 1026 820 754 736 681 568 568 656 767 880 984 752 742 726 736 679 727 631 601 596 661 476 413 368 241 128 14 1 0 0 0 0 0
0 0 0 0 0 0 0 0 0 0 0 0 0 0 0 0 0 11 4 1 0 0 0 29 44 348 280 320 582 721 594 712 943 869 943 737 882 676 618 558 589 964 991 1019 847 876 859 770 634 633 616 664 643 785 696 708 691 652 694 642 552 619 830 873 842 883 724 591 671 592 820 746 525 407 370 237 280 171 20 2 1 0 0 0 0 0
0 0 0 0 0 0 0 0 0 0 0 0 0 0 0 0 7 5 14 0 0 7 0 0 21 58 328 379 452 624 622 438 632 908 880 1176 1112 818 460 350 468 675 831 969 940 876 900 870 667 591 681 657 659 624 626 598 615 733 676 742 780 633 484 423 559 731 472 715 709 712 581 546 463 310 275 296 289 230 3 1 4 3 0 0 0 0
0 0 0 0 0 0 0 0 0 0 0 0 0 0 0 0 0 4 4 0 0 0 0 0 60 85 119 319 496 632 577 429 409 610 741 840 992 516 618 427 303 508 578 911 956 883 833 685 555 558 705 732 706 702 587 544 610 598 553 417 552 523 583 617 587 514 568 588 517 553 288 239 202 205 198 181 241 14 3 2 7 7 4 1 0 0
0 0 0 0 0 0 0 0 0 0 0 0 0 0 0 0 0 0 0 0 5 0 0 0 21 38 25 62 292 460 383 522 546 936 1133 739 622 625 573 361 337 526 767 935 923 823 721 550 510 518 660 692 705 686 597 520 498 511 557 399 283 241 270 265 279 212 231 244 276 253 321 244 178 155 158 76 23 18 21 10 6 3 0 1 1 0
0 0 0 0 0 0 0 0 0 0 0 0 0 0 0 0 0 8 0 4 48 31 0 0 13 81 27 128 320 280 429 660 758 363 698 604 581 686 546 348 410 415 750 771 886 794 681 457 510 622 722 671 653 616 625 526 485 403 383 357 317 241 314 247 220 213 231 222 146 64 90 121 130 72 47 75 19 11 1 3 2 1 3 2 1 0
2 0 0 0 0 0 0 0 0 0 0 0 0 0 0 0 0 1 3 10 5 0 4 0 0 24 7 74 475 768 892 677 660 570 590 638 790 632 512 299 394 624 735 830 803 641 547 508 528 596 599 601 514 584 564 488 347 307 267 213 18 252 257 262 247 218 12 4 2 2 3 2 22 15 6 7 6 5 12 5 0 2 2 0 0 0
2 0 0 0 0 0 0 0 0 0 0 0 0 0 0 0 0 0 0 0 0 0 0 0 0 0 17 44 258 472 533 581 417 672 836 838 741 735 686 626 639 790 733 661 638 620 528 453 647 590 544 541 441 372 310 342 346 314 292 223 144 249 269 302 340 2 4 4 3 4 3 3 4 6 7 5 3 3 2 1 1 2 0 0 0 0
19 3 0 0 0 0 0 0 0 0 0 0 0 0 0 0 0 0 0 0 0 0 0 0 0 0 0 1135 453 517 432 301 273 598 894 856 722 858 769 672 744 706 663 583 539 508 594 632 616 625 543 462 504 490 485 439 368 357 318 385 392 383 384 378 321 304 256 4 5 6 7 4 2 4 2 3 4 6 2 3 2 1 0 0 0 0
1 0 0 0 0 0 0 0 0 0 0 0 0 0 1 0 1 0 0 0 0 0 0 0 3 4 18 524 240 410 251 409 390 38 809 596 803 990 774 748 736 625 568 544 600 520 610 581 581 533 524 425 505 527 447 423 380 381 378 396 391 395 382 347 338 288 248 141 4 5 4 5 4 3 3 5 6 6 7 6 2 1 0 0 0 0
2 20 0 0 0 0 0 0 0 0 0 0 0 2 0 0 0 9 0 0 1 0 0 0 107 229 205 507 126 126 206 311 119 340 542 594 795 963 850 761 688 603 581 596 578 408 517 426 505 560 587 544 536 502 455 369 328 299 306 333 363 321 369 407 370 368 313 196 3 4 5 5 6 7 8 9 10 10 8 4 0 0 0 0 0 0
3 7 0 0 0 0 0 0 0 0 0 0 0 0 0 0 3 2 0 1 0 0 0 0 1 326 100 376 259 110 82 66 313 974 961 995 981 699 748 748 680 551 585 630 496 390 366 420 510 601 641 584 583 589 532 478 429 415 420 412 392 439 459 433 428 292 238 0 1 3 4 7 8 6 8 7 6 6 4 1 0 0 0 0 0 0
5 15 1 0 0 0 0 0 0 0 0 0 0 0 0 6 0 4 0 1 0 0 0 0 0 2 0 182 194 124 18 308 609 224 1191 1034 952 844 673 590 601 731 725 486 474 366 291 463 601 642 634 596 599 565 540 515 506 484 466 521 585 549 525 403 301 198 1 2 6 7 9 10 9 7 6 5 4 1 0 0 0 0 0 0 0 0
16 19 0 0 0 0 0 0 0 0 0 0 0 0 0 0 0 8 0 0 0 0 0 0 0 0 0 116 26 138 19 862 448 642 352 1008 1039 856 748 616 641 625 554 444 386 305 364 541 559 506 464 434 443 474 517 548 518 535 590 603 617 556 480 360 120 8 7 8 8 10 6 3 1 1 3 1 0 0 0 0 0 0 0 0 0 0
20 135 0 0 0 0 0 0 0 0 0 0 0 0 0 0 0 0 1 0 0 0 0 0 0 0 0 106 195 110 63 673 774 768 619 766 1071 988 802 629 579 606 492 418 359 342 489 633 579 548 524 497 462 570 578 551 572 517 559 576 555 559 455 284 231 137 5 9 8 6 5 6 4 0 0 0 0 0 0 0 0 0 0 0 0 0
20 1 5 0 0 0 0 0 0 0 0 0 0 0 0 0 0 0 15 0 0 0 0 0 0 0 17 65 186 188 381 504 586 1257 1238 1023 1082 886 761 583 630 608 479 432 398 394 520 576 558 575 584 613 501 548 595 583 571 476 470 477 536 537 422 226 317 283 1 6 5 2 2 3 0 0 0 0 0 0 0 0 0 0 0 0 0 0
218 0 3 0 0 0 0 0 0 0 0 0 0 0 0 0 0 0 2 2 0 0 0 0 0 38 808 432 387 317 456 530 580 1385 1439 1331 1095 965 796 648 718 633 562 444 457 465 478 460 494 563 560 534 498 516 536 528 461 462 476 490 507 497 380 291 335 295 127 2 1 2 1 0 0 0 0 0 0 0 0 0 0 0 0 0 0 0
77 3 2 0 0 0 0 0 0 0 0 0 0 0 0 0 0 0 0 14 9 10 0 0 0 421 604 1046 636 331 378 559 684 729 908 1166 1226 1042 767 660 805 712 497 473 478 431 415 399 419 567 584 595 564 515 501 483 487 496 544 512 482 502 442 326 292 263 174 0 1 0 0 0 0 0 0 0 0 0 0 0 0 0 0 0 0 0
12 0 0 4 11 2 0 0 0 0 0 0 0 0 0 0 0 4 2 3 0 1 0 0 3 472 1125 575 542 177 145 562 580 764 1033 1342 1112 974 911 858 829 605 520 476 458 414 365 357 428 519 604 601 548 526 522 501 518 536 444 384 380 361 352 310 235 239 188 0 0 0 0 0 0 0 0 0 0 0 0 0 0 0 0 0 0 0
4 7 0 4 2 0 0 0 0 0 0 0 0 0 0 0 3 11 2 6 0 4 0 1 0 883 1006 531 90 183 84 108 215 1344 1346 1323 1105 1019 933 936 791 600 570 516 489 444 398 403 392 418 588 556 520 529 551 578 559 474 444 417 362 360 386 291 178 212 180 21 0 0 0 0 0 0 0 0 0 0 0 0 0 0 0 0 0 0
8 16 4 2 0 0 0 0 0 0 0 0 0 0 0 0 0 17 1 0 0 2 0 2 218 202 805 858 100 85 173 184 80 265 1423 1284 1170 986 824 736 633 573 519 453 502 480 450 431 387 420 624 602 552 537 567 579 535 484 459 385 381 400 404 264 168 173 152 0 0 0 0 0 0 0 0 0 0 0 0 0 0 0 0 0 0 0
0 0 2 84 13 2 0 0 0 0 0 0 0 0 0 0 0 42 3 0 0 4 0 1 496 574 414 486 28 152 176 346 584 951 1269 1302 1072 944 825 688 536 516 436 390 380 394 456 489 437 476 659 601 590 612 584 573 477 454 467 434 521 488 424 245 143 114 128 0 0 0 0 0 0 0 0 0 0 0 0 0 0 0 0 0 0 0
2 6 3 0 4 0 1 0 0 0 0 0 0 0 0 0 0 1 99 2 11 0 0 76 390 302 51 178 73 154 741 1104 1238 1257 1340 1120 980 846 765 631 565 540 436 392 326 407 532 551 564 595 598 592 587 604 565 534 442 479 470 502 554 530 396 178 18 94 54 0 0 0 0 0 0 0 0 0 0 0 0 0 0 0 0 0 0 0
0 0 1 4 8 10 1 2 2 0 0 0 0 0 0 0 0 0 0 2 12 11 0 10 771 438 32 4 64 935 1175 1117 1080 1038 1377 1109 1008 826 728 594 526 445 439 432 393 362 482 651 729 790 785 690 664 658 552 489 536 582 530 539 569 493 360 8 0 130 36 0 0 0 0 0 0 0 0 0 0 0 0 0 0 0 0 0 0 0
0 1 3 3 1 0 20 2 5 2 0 0 0 0 0 0 0 0 0 2 0 2 1 5 3 15 5 219 205 1043 1177 1294 1466 1375 1292 1065 877 746 681 664 597 471 391 402 390 420 423 450 605 683 694 694 700 622 549 618 662 590 561 609 586 465 182 20 123 6 0 0 0 0 0 0 0 0 0 0 0 0 0 0 0 0 0 0 0 0
0 0 0 5 0 2 0 22 4 19 5 0 0 0 0 0 0 0 0 0 0 0 6 62 0 0 35 487 210 357 667 1306 1488 1496 1151 1048 968 883 805 728 558 381 302 283 291 331 369 442 534 663 714 762 670 670 701 716 654 611 660 634 521 272 56 48 0 0 0 0 0 0 0 0 0 0 0 0 0 0 0 0 0 0 0 0 0 0
8 0 0 6 0 0 0 0 2 2 4 15 28 12 0 0 0 0 0 0 0 3 0 0 0 0 0 0 52 206 384 884 1552 1418 1356 1057 1019 927 817 634 509 399 272 205 246 255 285 377 497 601 688 672 690 711 695 653 609 672 694 624 413 155 30 0 0 0 0 0 0 0 0 0 0 0 0 0 0 0 0 0 0 0 0 0 0 0
0 2 0 6 2 0 1 8 7 4 0 1 14 23 8 12 0 0 0 0 0 0 0 0 0 4 26 9 605 288 572 913 1274 1307 1160 982 812 688 571 478 423 387 390 267 205 209 236 322 421 527 622 651 633 572 627 643 676 690 654 422 202 183 192 12 0 0 0 0 0 0 0 0 0 0 0 0 0 0 0 0 0 0 0 0 0 0
0 2 0 1 0 2 22 8 0 0 0 794 327 130 0 3 5 6 10 0 0 0 0 0 0 0 0 24 814 404 722 927 1521 1196 938 748 768 643 489 352 219 92 231 250 18 154 217 290 366 462 542 608 593 614 647 666 714 642 496 263 194 223 213 0 0 0 0 0 0 0 0 0 0 0 0 0 0 0 0 0 0 0 0 0 0 0
0 0 1 0 0 0 2 2 0 0 402 398 542 79 311 130 11 14 22 12 10 0 0 0 0 0 0 1 438 700 1083 1494 1440 1201 1031 827 656 678 466 326 206 90 61 16 5 111 128 225 332 412 521 587 572 590 654 737 744 581 374 249 288 344 124 0 0 0 0 0 0 0 0 0 0 0 0 0 0 0 0 0 0 0 0 0 0 0
0 0 0 1 0 0 0 0 0 210 163 473 176 192 119 20 1 0 0 0 0 15 4 0 0 0 0 0 1 333 1036 1133 896 857 1041 854 694 575 532 391 233 180 124 78 32 36 43 114 267 364 485 522 600 674 771 760 614 481 358 320 392 391 48 0 0 0 0 0 0 0 0 0 0 0 0 0 0 0 0 0 0 0 0 0 0 0
0 0 0 0 1 0 1 2 2 18 0 138 28 24 32 0 0 13 1 2 5 0 0 4 3 0 0 0 1 29 641 505 622 814 966 845 779 572 372 366 280 209 171 84 17 26 0 88 257 365 505 652 711 769 782 631 562 491 407 432 456 271 0 0 0 0 0 0 0 0 0 0 0 0 0 0 0 0 0 0 0 0 0 0 0 0
0 0 0 1 0 0 0 4 5 4 1 0 96 5 0 0 2 0 0 0 0 0 0 0 0 0 0 5 122 606 311 411 863 777 864 799 769 542 341 348 318 234 195 83 10 9 180 191 258 396 581 694 718 625 557 596 513 438 448 447 413 134 0 0 0 0 0 0 0 0 0 4 6 0 0 0 0 0 0 0 0 0 0 0 0 0
0 0 0 0 0 0 0 0 0 5 154 42 8 2 0 1 0 9 0 0 0 0 0 0 0 1 0 17 778 1054 1140 896 904 988 1169 864 692 493 336 364 303 232 140 30 2 11 77 208 268 356 455 575 582 546 537 511 455 435 453 404 327 40 0 0 0 0 0 0 0 1 8 15 8 0 0 0 0 0 0 0 0 0 0 0 0 0
0 0 0 0 0 0 0 0 0 59 50 49 15 30 72 72 48 0 0 8 292 276 88 0 0 0 0 191 1306 1203 1124 1373 1006 660 1144 860 602 429 327 303 257 209 74 3 0 0 6 246 330 364 474 560 624 570 519 543 515 491 467 425 196 0 0 0 0 0 0 0 0 8 24 18 1 0 0 0 0 0 0 0 0 0 0 0 0 0
6 4 0 0 0 0 0 0 0 0 240 18 10 1 53 144 121 2 818 36 502 515 304 271 8 0 4 77 1193 1179 952 662 1229 1228 1037 753 544 410 335 262 199 20 0 1 0 0 7 90 275 386 507 576 589 521 497 507 494 491 439 305 50 0 0 3 0 0 0 0 30 31 31 10 0 0 0 0 0 0 0 0 0 0 0 0 0 0
0 0 0 0 0 0 1 2 0 0 181 184 53 106 35 62 186 28 594 165 356 336 74 198 110 82 29 565 966 761 582 1087 1044 1016 906 636 441 380 315 224 36 8 0 0 0 0 0 61 216 444 528 509 467 508 478 492 493 460 403 144 0 0 29 50 40 25 43 30 50 34 19 1 0 0 0 0 0 0 0 0 0 0 0 0 0 0
10 0 0 0 0 1 0 1 26 56 186 189 60 15 49 792 505 978 356 172 286 555 266 175 44 448 227 1053 855 985 1122 1149 1046 938 808 552 447 317 236 154 70 6 0 0 0 0 1 66 299 368 437 472 502 462 481 398 341 303 196 30 0 26 53 49 9 48 55 55 40 20 3 0 0 0 0 0 0 0 0 0 0 0 0 0 0 0
13 4 251 50 1 0 199 72 48 558 425 549 517 493 800 544 441 574 586 528 523 231 457 193 451 946 874 865 1000 1012 1002 1021 869 696 623 573 444 342 189 133 57 0 0 0 0 0 0 32 258 354 425 418 432 330 360 384 294 141 28 2 7 46 24 51 56 56 52 44 15 4 0 0 0 0 0 0 0 0 0 0 0 0 0 0 0 0
85 87 352 103 21 15 23 311 32 8 313 365 219 608 672 414 260 316 519 551 781 756 670 635 604 775 982 1027 898 798 682 817 822 710 543 420 353 299 174 41 64 84 6 0 0 7 0 19 143 289 381 381 368 302 282 201 78 10 10 3 34 36 54 57 55 47 45 16 2 0 0 0 0 0 0 0 0 0 0 0 0 0 0 0 0 0
14 76 127 10 5 0 6 54 75 143 49 144 188 355 569 180 362 484 652 671 498 765 854 798 677 902 957 758 865 697 635 588 629 712 476 384 344 210 243 130 103 94 0 4 6 4 0 2 130 229 317 395 306 212 108 45 18 10 13 31 59 60 58 55 46 38 17 0 0 0 0 0 0 0 0 0 0 0 0 0 0 0 0 0 0 0
76 255 65 6 0 6 8 214 200 109 220 181 89 190 162 182 238 396 432 636 623 504 788 864 764 762 768 734 728 563 499 627 526 423 382 446 327 168 177 160 135 116 61 14 7 8 0 52 222 219 214 179 169 124 50 55 32 18 36 48 62 54 45 35 29 11 1 0 0 0 0 0 0 0 0 0 0 0 0 0 0 0 0 0 0 0
386 268 38 0 0 0 2 119 20 241 87 40 52 27 241 251 234 214 353 470 478 304 269 598 801 572 631 811 672 646 418 420 446 401 256 347 276 268 142 119 105 89 74 4 0 0 0 92 187 176 132 122 135 53 75 44 15 20 44 50 37 29 14 12 5 0 0 0 0 0 0 0 0 0 0 0 0 0 0 0 0 0 0 0 0 0
32 66 110 53 16 5 63 3 256 41 38 90 348 252 311 222 224 364 249 273 270 389 400 601 675 522 595 655 552 438 365 362 362 314 223 338 282 274 176 110 95 72 28 7 3 1 49 147 172 122 90 71 38 64 75 40 9 23 40 30 18 7 0 0 0 0 0 0 0 0 0 0 0 0 0 0 0 0 0 0 0 0 0 0 0 0
286 325 68 124 30 90 127 161 254 178 110 47 314 192 167 182 241 204 377 354 403 482 417 530 446 294 465 497 384 312 328 300 305 287 217 216 223 168 140 81 8 27 3 2 0 14 161 194 42 42 32 34 46 28 13 11 13 21 23 14 4 0 0 0 0 0 0 0 0 0 0 0 0 0 0 0 0 0 0 0 0 0 0 0 0 0
Wind_Speed
nan nan nan nan nan nan nan nan nan nan nan nan nan nan nan nan nan nan nan nan nan nan nan nan nan 46 38 32 33 32 30 30 30 29 28 28 27 30 34 34 26 27 23 17 21 27 30 30 29 30 31 32 34 36 38 37 36 34 32 30 33 35 34 32 31 28 27 26 24 23 23 16 10 7 8 11 12 14 15 18 19 20 20 21 20 22
nan nan nan nan nan nan nan nan nan nan nan nan nan nan nan nan nan nan nan nan nan nan nan nan 45 44 39 38 37 35 29 25 26 26 25 26 27 28 31 31 28 30 26 20 22 28 30 30 30 32 34 33 34 35 36 37 37 36 35 33 34 35 34 31 30 29 28 25 23 22 21 16 5 3 5 10 11 14 17 19 21 21 22 22 22 22
nan nan nan nan nan nan nan nan nan nan nan nan nan nan nan nan nan nan nan nan nan nan nan 44 42 40 41 44 36 30 28 25 24 26 25 27 28 29 27 28 26 29 27 23 24 26 28 30 30 31 33 31 32 35 36 36 37 35 36 35 35 35 34 33 32 31 28 25 25 21 19 15 6 5 8 10 14 17 20 21 22 23 23 24 23 22
nan nan nan nan nan nan nan nan nan nan nan nan nan nan nan nan nan nan nan nan nan nan nan 40 43 39 46 43 32 24 24 24 26 26 28 25 26 25 24 24 26 28 25 22 24 27 27 28 28 29 30 31 32 34 32 32 33 33 35 32 31 34 34 34 33 30 27 27 26 26 22 15 5 9 10 13 17 20 22 22 23 23 nan nan nan nan
nan nan nan nan nan nan nan nan nan nan nan nan nan nan nan nan nan nan nan nan nan nan 25 38 44 42 38 32 27 25 22 27 27 27 27 27 25 26 28 29 27 27 21 20 24 27 27 26 28 28 26 28 30 27 26 29 28 27 30 30 29 29 29 29 29 26 23 23 25 24 20 15 11 10 12 15 19 21 23 nan nan nan nan nan nan nan
nan nan nan nan nan nan nan nan nan nan nan nan nan nan nan nan nan nan nan nan nan nan nan 46 40 36 32 24 25 27 24 26 28 24 24 27 27 26 26 30 28 24 15 21 25 27 27 28 30 28 27 25 22 23 22 25 26 24 25 30 30 27 27 29 28 25 23 24 23 22 20 14 11 12 13 16 19 20 21 nan nan nan nan nan nan nan
nan nan nan nan nan nan nan nan nan nan nan nan nan nan nan nan nan nan nan nan nan nan nan 42 38 37 35 26 26 28 26 30 28 26 25 25 29 27 26 29 30 21 19 20 25 27 28 28 29 28 28 28 25 23 24 23 26 26 27 28 28 28 28 25 24 22 22 23 21 19 15 10 12 15 16 17 19 20 20 nan nan nan nan nan nan nan
nan nan nan nan nan nan nan nan nan nan nan nan nan nan nan nan nan nan nan nan nan nan nan nan nan 36 36 30 30 31 28 29 28 28 25 23 28 28 23 28 34 23 19 20 25 28 30 28 28 28 28 30 26 23 23 22 23 26 29 29 28 27 25 22 23 22 21 21 18 18 18 17 17 16 17 19 20 20 nan nan nan nan nan nan nan nan
nan nan nan nan nan nan nan nan nan nan nan nan nan nan nan nan nan nan nan nan nan nan nan nan nan nan 37 34 33 32 31 26 25 26 28 24 25 28 34 33 31 23 18 21 24 27 28 29 28 27 28 29 26 20 19 19 21 24 27 29 28 27 27 25 24 22 19 19 18 17 19 19 17 16 17 18 19 20 nan nan nan nan nan nan nan nan
nan nan nan nan nan nan nan nan nan nan nan nan nan nan nan nan nan nan nan nan nan nan nan nan nan nan 33 36 34 30 29 24 23 25 26 24 25 30 34 30 23 20 18 19 25 26 27 28 29 28 29 29 23 19 20 20 21 20 22 25 26 25 24 23 24 23 23 23 20 18 18 17 16 16 17 17 19 nan nan nan nan nan nan nan nan nan
nan nan nan nan nan nan nan nan nan nan nan nan nan nan nan nan nan nan nan nan nan nan nan nan nan nan nan nan 36 31 23 21 24 24 23 28 30 30 30 28 24 15 14 18 24 26 26 27 28 27 28 29 26 21 21 21 20 19 19 20 24 23 22 24 24 23 21 18 16 16 16 16 17 18 17 nan nan nan nan nan nan nan nan nan nan nan
nan nan nan nan nan nan nan nan nan nan nan nan nan nan nan nan nan nan nan nan nan nan nan nan nan nan nan 37 35 29 24 22 24 25 27 31 29 30 28 29 24 13 14 21 25 26 26 26 26 26 27 27 28 26 24 23 20 19 20 22 24 22 21 21 20 18 16 15 15 nan nan 16 16 nan nan nan nan nan nan nan nan nan nan nan nan nan
nan nan nan nan nan nan nan nan nan nan nan nan nan nan nan nan nan nan nan nan nan nan nan nan nan nan nan nan 37 33 28 26 24 24 32 32 30 33 28 26 20 22 25 27 27 27 25 24 25 26 27 27 29 29 29 25 20 19 20 23 nan 21 20 20 19 15 nan nan nan nan nan nan nan nan nan nan nan nan nan nan nan nan nan nan nan nan
nan nan nan nan nan nan nan nan nan nan nan nan nan nan nan nan nan nan nan nan nan nan nan nan nan nan nan nan 40 33 29 29 28 26 34 33 33 32 26 25 27 28 31 30 29 28 27 25 25 27 27 28 28 29 27 24 20 18 21 24 24 23 19 18 19 nan nan nan nan nan nan nan nan nan nan nan nan nan nan nan nan nan nan nan nan nan
nan nan nan nan nan nan nan nan nan nan nan nan nan nan nan nan nan nan nan nan nan nan nan nan nan nan nan 42 41 33 31 30 31 33 37 34 31 29 26 29 30 30 31 30 29 28 26 26 26 25 26 26 25 26 24 21 20 22 25 25 24 23 20 20 20 19 19 nan nan nan nan nan nan nan nan nan nan nan nan nan nan nan nan nan nan nan
nan nan nan nan nan nan nan nan nan nan nan nan nan nan nan nan nan nan nan nan nan nan nan nan nan nan nan 35 36 36 32 26 29 nan 45 34 24 24 25 27 28 29 29 28 28 26 25 26 25 26 26 24 23 24 23 22 20 24 25 24 23 22 21 21 22 22 21 21 nan nan nan nan nan nan nan nan nan nan nan nan nan nan nan nan nan nan
nan nan nan nan nan nan nan nan nan nan nan nan nan nan nan nan nan nan nan nan nan nan nan nan 30 39 39 32 39 39 31 25 24 39 42 31 25 21 23 26 27 28 27 25 26 24 25 25 25 25 25 22 22 21 22 21 24 27 26 25 25 24 22 24 24 23 23 23 nan nan nan nan nan nan nan nan nan nan nan nan nan nan nan nan nan nan
nan nan nan nan nan nan nan nan nan nan nan nan nan nan nan nan nan nan nan nan nan nan nan nan nan 37 nan 33 32 38 nan nan 37 43 37 33 29 22 21 22 25 27 27 26 26 25 25 25 26 25 22 20 19 22 25 27 26 26 25 26 25 24 26 26 26 26 25 nan nan nan nan nan nan nan nan nan nan nan nan nan nan nan nan nan nan nan
nan nan nan nan nan nan nan nan nan nan nan nan nan nan nan nan nan nan nan nan nan nan nan nan nan nan nan 37 35 28 nan 38 38 37 35 30 27 23 19 22 24 27 26 26 25 23 23 22 21 20 20 20 22 23 25 25 24 25 27 25 24 25 25 26 25 26 nan nan nan nan nan nan nan nan nan nan nan nan nan nan nan nan nan nan nan nan
nan nan nan nan nan nan nan nan nan nan nan nan nan nan nan nan nan nan nan nan nan nan nan nan nan nan nan 39 nan 29 nan 45 40 29 24 25 24 22 20 20 24 26 24 23 22 22 21 20 21 21 22 22 23 24 23 23 23 27 28 27 25 25 25 26 25 nan nan nan nan nan nan nan nan nan nan nan nan nan nan nan nan nan nan nan nan nan
nan 20 nan nan nan nan nan nan nan nan nan nan nan nan nan nan nan nan nan nan nan nan nan nan nan nan nan 38 40 32 nan 50 45 33 26 25 24 26 23 22 23 24 22 20 21 21 20 19 20 22 23 24 23 21 21 22 25 26 27 26 25 26 26 26 25 24 nan nan nan nan nan nan nan nan nan nan nan nan nan nan nan nan nan nan nan nan
nan nan nan nan nan nan nan nan nan nan nan nan nan nan nan nan nan nan nan nan nan nan nan nan nan nan nan nan 41 35 34 46 47 44 35 31 30 30 27 24 25 23 22 21 20 21 20 19 19 21 21 20 20 19 21 22 24 26 27 26 25 24 25 27 27 28 nan nan nan nan nan nan nan nan nan nan nan nan nan nan nan nan nan nan nan nan
32 nan nan nan nan nan nan nan nan nan nan nan nan nan nan nan nan nan nan nan nan nan nan nan nan nan 35 41 37 35 37 44 48 48 38 31 29 29 28 28 26 25 24 21 22 22 20 19 19 19 20 19 19 19 20 21 23 27 28 26 24 25 27 28 29 30 31 nan nan nan nan nan nan nan nan nan nan nan nan nan nan nan nan nan nan nan
nan nan nan nan nan nan nan nan nan nan nan nan nan nan nan nan nan nan nan nan nan nan nan nan nan 33 36 38 32 36 39 42 43 41 34 30 29 27 29 29 29 27 25 24 25 24 22 22 21 20 19 19 18 19 19 20 24 25 25 23 26 28 29 30 30 32 33 nan nan nan nan nan nan nan nan nan nan nan nan nan nan nan nan nan nan nan
nan nan nan nan nan nan nan nan nan nan nan nan nan nan nan nan nan nan nan nan nan nan nan nan nan 25 26 24 36 40 36 34 40 40 35 32 28 26 28 29 29 29 27 25 27 27 25 23 22 20 19 19 19 19 19 22 23 24 22 29 28 29 29 29 30 33 34 nan nan nan nan nan nan nan nan nan nan nan nan nan nan nan nan nan nan nan
nan nan nan nan nan nan nan nan nan nan nan nan nan nan nan nan nan nan nan nan nan nan nan nan nan 30 28 22 nan 28 nan 27 40 46 40 32 28 26 27 29 30 31 27 27 28 27 26 24 23 22 20 19 20 21 22 23 24 24 27 30 29 30 30 31 31 33 34 nan nan nan nan nan nan nan nan nan nan nan nan nan nan nan nan nan nan nan
nan nan nan nan nan nan nan nan nan nan nan nan nan nan nan nan nan nan nan nan nan nan nan nan 20 26 30 25 28 nan 25 27 nan 41 39 32 28 27 27 28 30 31 29 29 28 27 27 25 25 24 23 21 22 22 23 24 25 27 29 30 31 33 32 33 33 35 36 nan nan nan nan nan nan nan nan nan nan nan nan nan nan nan nan nan nan nan
nan nan nan nan nan nan nan nan nan nan nan nan nan nan nan nan nan nan nan nan nan nan nan nan 26 31 29 27 nan 24 24 35 37 35 35 31 29 26 27 29 32 32 30 29 28 29 28 28 27 27 25 24 23 25 25 27 27 27 30 31 33 36 35 33 35 37 39 nan nan nan nan nan nan nan nan nan nan nan nan nan nan nan nan nan nan nan
nan nan nan nan nan nan nan nan nan nan nan nan nan nan nan nan nan nan nan nan nan nan nan nan 30 35 nan 28 nan 29 36 38 35 33 33 32 29 28 28 29 28 28 28 28 28 28 28 29 28 28 28 27 27 29 28 29 29 30 32 32 35 37 38 36 nan nan nan nan nan nan nan nan nan nan nan nan nan nan nan nan nan nan nan nan nan nan
nan nan nan nan nan nan nan nan nan nan nan nan nan nan nan nan nan nan nan nan nan nan nan nan 29 27 nan nan nan 37 39 39 38 38 38 34 32 31 28 26 25 25 25 25 27 28 28 29 29 30 30 29 30 30 30 32 33 33 34 34 37 38 38 nan nan 41 nan nan nan nan nan nan nan nan nan nan nan nan nan nan nan nan nan nan nan nan
nan nan nan nan nan nan nan nan nan nan nan nan nan nan nan nan nan nan nan nan nan nan nan nan nan nan nan 33 38 41 43 49 44 42 40 36 35 31 28 24 23 23 25 26 26 27 28 29 31 32 32 31 31 32 32 31 34 35 35 37 39 39 38 nan 41 nan nan nan nan nan nan nan nan nan nan nan nan nan nan nan nan nan nan nan nan nan
nan nan nan nan nan nan nan nan nan nan nan nan nan nan nan nan nan nan nan nan nan nan nan nan nan nan nan 37 36 37 37 38 35 37 38 35 32 30 27 25 24 25 26 26 26 27 27 29 31 31 31 31 33 35 35 35 36 36 38 39 40 39 nan nan nan nan nan nan nan nan nan nan nan nan nan nan nan nan nan nan nan nan nan nan nan nan
nan nan nan nan nan nan nan nan nan nan nan nan nan nan nan nan nan nan nan nan nan nan nan nan nan nan nan nan nan 42 37 32 33 31 32 33 32 29 25 25 25 26 27 27 26 25 27 28 29 29 30 32 34 35 36 36 37 39 39 41 40 39 nan nan nan nan nan nan nan nan nan nan nan nan nan nan nan nan nan nan nan nan nan nan nan nan
nan nan nan nan nan nan nan nan nan nan nan nan nan nan nan nan nan nan nan nan nan nan nan nan nan nan nan nan 51 46 46 39 35 30 29 31 33 30 27 24 23 25 25 25 24 25 26 28 29 28 30 33 35 36 37 36 38 40 39 40 40 40 42 nan nan nan nan nan nan nan nan nan nan nan nan nan nan nan nan nan nan nan nan nan nan nan
nan nan nan nan nan nan nan nan nan nan nan 37 36 34 nan nan nan nan nan nan nan nan nan nan nan nan nan nan 49 47 46 40 41 40 36 32 30 29 29 27 25 nan 24 23 nan 25 26 26 29 29 30 33 34 36 37 38 38 38 38 38 40 41 42 nan nan nan nan nan nan nan nan nan nan nan nan nan nan nan nan nan nan nan nan nan nan nan
nan nan nan nan nan nan nan nan nan nan 31 32 37 nan 39 37 nan nan nan nan nan nan nan nan nan nan nan nan 46 46 43 45 45 40 36 33 31 31 29 26 26 nan nan nan nan 27 27 26 27 28 31 32 34 36 35 36 37 37 38 39 40 41 42 nan nan nan nan nan nan nan nan nan nan nan nan nan nan nan nan nan nan nan nan nan nan nan
nan nan nan nan nan nan nan nan nan 33 25 26 26 25 27 nan nan nan nan nan nan nan nan nan nan nan nan nan nan 39 43 47 43 37 35 34 32 30 28 25 25 28 29 nan nan nan nan 30 29 30 32 33 35 36 34 36 37 37 38 39 40 41 nan nan nan nan nan nan nan nan nan nan nan nan nan nan nan nan nan nan nan nan nan nan nan nan
nan nan nan nan nan nan nan nan nan nan nan 22 nan nan nan nan nan nan nan nan nan nan nan nan nan nan nan nan nan nan 50 44 39 35 33 34 34 31 27 25 27 32 31 nan nan nan nan nan 33 34 34 36 36 35 35 36 36 36 37 38 39 40 nan nan nan nan nan nan nan nan nan nan nan nan nan nan nan nan nan nan nan nan nan nan nan nan
nan nan nan nan nan nan nan nan nan nan nan nan nan nan nan nan nan nan nan nan nan nan nan nan nan nan nan nan 37 51 46 37 35 32 32 35 33 31 29 27 34 34 32 nan nan nan 33 33 34 36 36 37 37 36 37 36 36 36 36 38 40 41 nan nan nan nan nan nan nan nan nan nan nan nan nan nan nan nan nan nan nan nan nan nan nan nan
nan nan nan nan nan nan nan nan nan nan 28 nan nan nan nan nan nan nan nan nan nan nan nan nan nan nan nan nan 41 41 37 32 31 33 38 36 33 31 31 36 36 34 33 nan nan nan nan 35 37 36 37 38 37 37 36 34 34 35 37 39 40 nan nan nan nan nan nan nan nan nan nan nan nan nan nan nan nan nan nan nan nan nan nan nan nan nan
nan nan nan nan nan nan nan nan nan nan nan nan nan nan nan nan nan nan nan nan 30 34 nan nan nan nan nan 26 40 32 30 33 36 38 40 37 36 32 33 32 33 33 nan nan nan nan nan 33 34 36 37 36 35 33 32 33 34 36 37 39 39 nan nan nan nan nan nan nan nan nan nan nan nan nan nan nan nan nan nan nan nan nan nan nan nan nan
nan nan nan nan nan nan nan nan nan nan 30 nan nan nan nan 20 20 nan 27 nan 27 29 30 29 nan nan nan nan 35 33 38 40 40 41 40 38 33 35 33 33 33 nan nan nan nan nan nan nan 35 36 36 34 32 32 32 33 35 36 37 37 nan nan nan nan nan nan nan nan nan nan nan nan nan nan nan nan nan nan nan nan nan nan nan nan nan nan
nan nan nan nan nan nan nan nan nan nan 27 21 nan 20 nan nan 26 nan 22 26 28 30 nan 26 23 nan nan 31 38 41 39 39 39 38 38 38 38 37 34 34 nan nan nan nan nan nan nan nan 36 35 35 33 32 32 32 34 36 36 36 36 nan nan nan nan nan nan nan nan nan nan nan nan nan nan nan nan nan nan nan nan nan nan nan nan nan nan
nan nan nan nan nan nan nan nan nan nan 28 24 nan nan nan 27 24 24 24 26 32 32 30 29 nan 31 29 36 38 36 35 33 31 33 34 35 36 35 35 35 nan nan nan nan nan nan nan nan 36 34 34 33 33 32 33 35 35 36 37 nan nan nan nan nan nan nan nan nan nan nan nan nan nan nan nan nan nan nan nan nan nan nan nan nan nan nan
nan nan 22 nan nan nan 24 nan nan 24 27 29 30 28 30 28 27 28 29 33 33 33 30 26 29 35 38 36 35 31 30 27 28 29 31 32 33 33 34 34 nan nan nan nan nan nan nan nan 34 34 34 33 33 33 34 33 35 37 nan nan nan nan nan nan nan nan nan nan nan nan nan nan nan nan nan nan nan nan nan nan nan nan nan nan nan nan
nan nan 16 12 nan nan nan 24 nan nan 26 28 28 29 30 29 31 30 34 32 34 35 34 29 26 29 33 36 32 28 28 28 30 28 32 31 32 32 35 nan nan nan nan nan nan nan nan nan 31 34 35 34 33 34 34 33 nan nan nan nan nan nan nan nan nan nan nan nan nan nan nan nan nan nan nan nan nan nan nan nan nan nan nan nan nan nan
nan nan 12 nan nan nan nan nan nan 21 nan 19 25 26 28 28 33 32 33 32 32 33 35 33 31 30 30 32 32 26 26 28 27 30 32 32 29 31 34 33 33 nan nan nan nan nan nan nan 30 32 34 35 34 35 34 nan nan nan nan nan nan nan nan nan nan nan nan nan nan nan nan nan nan nan nan nan nan nan nan nan nan nan nan nan nan nan
nan 24 nan nan nan nan nan 23 21 22 22 17 nan 24 21 25 28 31 32 32 32 33 33 36 34 33 32 30 31 28 25 24 26 29 28 29 29 28 34 34 33 32 nan nan nan nan nan nan 29 32 34 34 36 36 nan nan nan nan nan nan nan nan nan nan nan nan nan nan nan nan nan nan nan nan nan nan nan nan nan nan nan nan nan nan nan nan
16 18 nan nan nan nan nan 26 nan 21 nan nan nan nan 24 24 25 26 28 29 30 34 34 33 34 34 32 32 31 30 26 24 27 27 27 36 36 30 32 35 33 nan nan nan nan nan nan nan 29 32 34 36 37 nan nan nan nan nan nan nan nan nan nan nan nan nan nan nan nan nan nan nan nan nan nan nan nan nan nan nan nan nan nan nan nan nan
nan nan 20 nan nan nan nan nan 17 nan nan nan 25 26 27 25 23 25 24 25 26 29 31 33 34 35 33 30 31 31 29 26 26 30 32 36 32 34 33 34 nan nan nan nan nan nan nan 30 32 33 nan nan nan nan nan nan nan nan nan nan nan nan nan nan nan nan nan nan nan nan nan nan nan nan nan nan nan nan nan nan nan nan nan nan nan nan
24 23 nan 20 nan nan 26 27 27 27 25 nan 25 25 25 24 25 22 23 24 26 27 27 29 31 31 31 33 30 31 32 27 28 31 32 31 31 33 34 nan nan nan nan nan nan nan 29 31 nan nan nan nan nan nan nan nan nan nan nan nan nan nan nan nan nan nan nan nan nan nan nan nan nan nan nan nan nan nan nan nan nan nan nan nan nan nan
Wind_Direction
nan nan nan nan nan nan nan nan nan nan nan nan nan nan nan nan nan nan nan nan nan nan nan nan nan 264 260 259 260 259 260 259 261 266 267 262 257 250 248 256 253 248 251 272 288 281 272 269 266 266 267 269 273 273 270 262 259 264 264 259 256 258 255 253 256 255 253 256 241 231 236 233 193 190 216 239 250 257 256 257 257 258 264 267 269 269
nan nan nan nan nan nan nan nan nan nan nan nan nan nan nan nan nan nan nan nan nan nan nan nan 259 266 265 261 255 254 256 258 263 266 268 269 263 262 256 260 251 244 248 258 268 275 272 270 273 271 271 275 279 280 272 263 261 265 266 259 257 255 256 254 255 252 248 242 236 231 239 234 193 149 242 261 265 265 264 262 261 263 264 266 268 271
nan nan nan nan nan nan nan nan nan nan nan nan nan nan nan nan nan nan nan nan nan nan nan 265 263 265 266 261 260 261 256 250 256 261 265 267 266 261 259 256 248 245 246 247 265 276 276 276 276 275 280 281 279 279 271 263 263 265 265 265 260 256 253 249 248 251 246 239 238 242 242 240 212 224 249 268 269 271 271 269 269 268 270 268 270 271
nan nan nan nan nan nan nan nan nan nan nan nan nan nan nan nan nan nan nan nan nan nan nan 264 260 258 259 258 264 261 257 252 250 254 255 255 261 259 261 255 249 254 256 257 269 276 280 284 279 280 282 286 285 279 273 268 268 268 265 263 256 248 246 245 247 252 248 246 247 242 236 238 210 256 268 275 272 273 272 271 273 273 nan nan nan nan
nan nan nan nan nan nan nan nan nan nan nan nan nan nan nan nan nan nan nan nan nan nan 251 254 251 249 253 261 263 267 266 263 256 254 258 258 255 251 246 255 259 263 269 269 273 277 285 286 283 281 282 288 292 283 275 268 269 276 272 258 251 246 245 248 249 247 242 245 249 245 245 261 277 275 284 281 276 277 277 nan nan nan nan nan nan nan
nan nan nan nan nan nan nan nan nan nan nan nan nan nan nan nan nan nan nan nan nan nan nan 256 246 245 244 248 259 263 267 268 267 263 266 267 262 257 255 264 264 261 271 283 284 284 287 282 281 283 285 287 290 281 274 272 267 272 267 258 256 249 245 249 246 240 236 237 238 240 250 260 279 280 274 276 278 278 279 nan nan nan nan nan nan nan
nan nan nan nan nan nan nan nan nan nan nan nan nan nan nan nan nan nan nan nan nan nan nan 260 251 243 245 248 257 263 265 268 268 269 258 260 262 260 253 263 266 267 277 275 276 284 283 282 282 282 281 281 281 266 267 270 267 265 269 262 255 247 240 242 244 242 245 245 243 249 268 295 300 291 280 279 279 280 280 nan nan nan nan nan nan nan
nan nan nan nan nan nan nan nan nan nan nan nan nan nan nan nan nan nan nan nan nan nan nan nan nan 250 249 251 259 263 264 268 273 267 263 263 271 268 265 264 271 262 275 273 279 282 281 283 283 282 281 280 274 264 260 266 268 264 264 262 258 249 244 241 243 239 241 245 250 262 280 289 280 279 283 278 275 276 nan nan nan nan nan nan nan nan
nan nan nan nan nan nan nan nan nan nan nan nan nan nan nan nan nan nan nan nan nan nan nan nan nan nan 255 254 259 263 263 264 273 274 274 267 264 261 257 253 261 265 266 274 275 280 281 284 283 281 279 277 268 255 256 266 272 268 261 258 257 253 247 245 245 245 247 259 275 289 288 289 288 283 283 283 283 283 nan nan nan nan nan nan nan nan
nan nan nan nan nan nan nan nan nan nan nan nan nan nan nan nan nan nan nan nan nan nan nan nan nan nan 251 262 257 257 257 264 272 274 271 272 262 252 256 265 254 235 255 264 271 277 277 280 282 279 278 272 254 244 264 276 274 265 260 258 262 261 252 253 256 257 263 267 269 275 281 285 284 282 281 286 291 nan nan nan nan nan nan nan nan nan
nan nan nan nan nan nan nan nan nan nan nan nan nan nan nan nan nan nan nan nan nan nan nan nan nan nan nan nan 269 266 270 280 273 268 268 269 263 258 259 260 257 231 259 264 272 276 278 278 281 280 277 269 254 244 267 279 278 271 262 258 258 258 256 253 255 257 259 261 268 275 277 279 284 288 293 nan nan nan nan nan nan nan nan nan nan nan
nan nan nan nan nan nan nan nan nan nan nan nan nan nan nan nan nan nan nan nan nan nan nan nan nan nan nan 258 267 275 279 281 278 288 287 276 277 267 257 251 252 267 283 277 273 278 278 281 280 278 276 270 263 260 271 282 278 268 264 260 253 246 250 256 256 263 264 264 268 nan nan 284 289 nan nan nan nan nan nan nan nan nan nan nan nan nan
nan nan nan nan nan nan nan nan nan nan nan nan nan nan nan nan nan nan nan nan nan nan nan nan nan nan nan nan 275 279 279 283 284 285 286 283 277 267 264 265 270 282 282 276 275 276 274 279 281 281 278 273 269 266 276 283 277 270 268 264 nan 257 256 263 266 265 nan nan nan nan nan nan nan nan nan nan nan nan nan nan nan nan nan nan nan nan
nan nan nan nan nan nan nan nan nan nan nan nan nan nan nan nan nan nan nan nan nan nan nan nan nan nan nan nan 277 280 278 287 285 279 274 277 279 275 271 270 271 275 277 274 275 275 276 279 283 283 278 275 268 269 275 280 277 272 265 265 264 264 263 267 270 nan nan nan nan nan nan nan nan nan nan nan nan nan nan nan nan nan nan nan nan nan
nan nan nan nan nan nan nan nan nan nan nan nan nan nan nan nan nan nan nan nan nan nan nan nan nan nan nan 241 266 273 275 276 283 277 270 266 273 282 277 270 270 273 271 271 271 274 275 278 278 277 276 272 266 268 269 270 272 265 261 264 268 270 269 272 277 279 275 nan nan nan nan nan nan nan nan nan nan nan nan nan nan nan nan nan nan nan
nan nan nan nan nan nan nan nan nan nan nan nan nan nan nan nan nan nan nan nan nan nan nan nan nan nan nan 245 245 261 264 268 269 nan 266 270 274 280 270 270 265 266 268 270 272 275 275 275 274 271 270 266 263 268 267 270 263 263 265 266 267 267 267 266 266 270 275 274 nan nan nan nan nan nan nan nan nan nan nan nan nan nan nan nan nan nan
nan nan nan nan nan nan nan nan nan nan nan nan nan nan nan nan nan nan nan nan nan nan nan nan 235 234 242 248 256 258 268 273 275 268 273 284 290 291 277 270 269 268 268 267 270 270 270 270 272 271 270 262 261 265 266 261 257 261 262 264 267 268 269 271 271 270 268 271 nan nan nan nan nan nan nan nan nan nan nan nan nan nan nan nan nan nan
nan nan nan nan nan nan nan nan nan nan nan nan nan nan nan nan nan nan nan nan nan nan nan nan nan 247 nan 244 253 266 nan nan 267 266 271 275 284 289 278 269 266 265 266 268 269 268 273 279 285 280 267 259 257 259 259 258 259 262 263 266 268 272 272 268 272 273 275 nan nan nan nan nan nan nan nan nan nan nan nan nan nan nan nan nan nan nan
nan nan nan nan nan nan nan nan nan nan nan nan nan nan nan nan nan nan nan nan nan nan nan nan nan nan nan 248 251 266 nan 262 255 264 275 283 284 279 272 267 266 264 263 265 268 271 275 280 283 277 265 262 256 255 256 261 266 267 267 266 268 271 274 278 278 281 nan nan nan nan nan nan nan nan nan nan nan nan nan nan nan nan nan nan nan nan
nan nan nan nan nan nan nan nan nan nan nan nan nan nan nan nan nan nan nan nan nan nan nan nan nan nan nan 249 nan 259 nan 269 269 261 277 286 288 274 271 262 264 267 263 264 270 273 275 282 283 277 271 272 268 261 261 261 261 266 266 270 272 274 276 279 280 nan nan nan nan nan nan nan nan nan nan nan nan nan nan nan nan nan nan nan nan nan
nan 167 nan nan nan nan nan nan nan nan nan nan nan nan nan nan nan nan nan nan nan nan nan nan nan nan nan 255 264 264 nan 274 276 279 278 281 278 273 276 266 263 269 267 270 272 275 277 277 277 275 270 271 263 257 259 259 262 265 268 271 275 277 278 278 278 281 nan nan nan nan nan nan nan nan nan nan nan nan nan nan nan nan nan nan nan nan
nan nan nan nan nan nan nan nan nan nan nan nan nan nan nan nan nan nan nan nan nan nan nan nan nan nan nan nan 260 261 260 270 275 274 272 276 280 279 272 270 266 265 266 267 268 272 270 269 269 270 265 262 263 267 267 264 267 273 275 277 277 274 274 277 280 282 nan nan nan nan nan nan nan nan nan nan nan nan nan nan nan nan nan nan nan nan
180 nan nan nan nan nan nan nan nan nan nan nan nan nan nan nan nan nan nan nan nan nan nan nan nan nan 228 251 260 262 257 269 267 272 275 278 280 284 278 268 264 264 259 262 264 264 262 260 263 267 267 268 271 271 273 270 271 273 277 282 280 276 275 278 281 282 281 nan nan nan nan nan nan nan nan nan nan nan nan nan nan nan nan nan nan nan
nan nan nan nan nan nan nan nan nan nan nan nan nan nan nan nan nan nan nan nan nan nan nan nan nan 231 221 238 248 259 263 269 269 272 278 275 274 279 281 272 264 263 258 258 261 258 255 255 257 262 271 272 272 273 272 269 271 275 279 283 280 277 277 281 282 283 283 nan nan nan nan nan nan nan nan nan nan nan nan nan nan nan nan nan nan nan
nan nan nan nan nan nan nan nan nan nan nan nan nan nan nan nan nan nan nan nan nan nan nan nan nan 242 248 245 244 260 263 276 277 277 275 277 276 277 278 273 268 265 262 261 263 262 260 259 264 269 273 272 273 271 269 270 273 275 276 272 274 275 279 281 282 283 285 nan nan nan nan nan nan nan nan nan nan nan nan nan nan nan nan nan nan nan
nan nan nan nan nan nan nan nan nan nan nan nan nan nan nan nan nan nan nan nan nan nan nan nan nan 245 255 260 nan 263 nan 262 269 272 274 278 279 277 274 271 271 268 267 266 265 267 270 266 262 265 268 271 270 271 273 274 278 277 269 272 274 275 278 282 284 286 286 nan nan nan nan nan nan nan nan nan nan nan nan nan nan nan nan nan nan nan
nan nan nan nan nan nan nan nan nan nan nan nan nan nan nan nan nan nan nan nan nan nan nan nan 220 246 249 255 266 nan 263 270 nan 279 278 279 277 273 268 266 266 266 265 267 266 265 265 263 267 270 273 270 270 270 271 274 277 277 274 273 276 278 281 284 286 287 287 nan nan nan nan nan nan nan nan nan nan nan nan nan nan nan nan nan nan nan
nan nan nan nan nan nan nan nan nan nan nan nan nan nan nan nan nan nan nan nan nan nan nan nan 246 247 245 245 nan 260 261 262 266 273 278 275 273 271 264 258 261 262 264 263 265 272 273 271 270 272 271 270 267 265 268 270 273 278 278 277 276 278 279 283 287 287 288 nan nan nan nan nan nan nan nan nan nan nan nan nan nan nan nan nan nan nan
nan nan nan nan nan nan nan nan nan nan nan nan nan nan nan nan nan nan nan nan nan nan nan nan 258 256 nan 248 nan 255 257 263 270 271 268 272 270 270 268 267 264 262 267 269 273 270 271 272 273 273 271 269 267 267 266 267 272 272 274 278 278 278 282 285 nan nan nan nan nan nan nan nan nan nan nan nan nan nan nan nan nan nan nan nan nan nan
nan nan nan nan nan nan nan nan nan nan nan nan nan nan nan nan nan nan nan nan nan nan nan nan 255 251 nan nan nan 256 255 259 260 261 269 276 274 274 274 272 269 265 264 271 275 272 270 274 272 272 270 272 274 273 274 273 274 276 278 279 280 280 283 nan nan 284 nan nan nan nan nan nan nan nan nan nan nan nan nan nan nan nan nan nan nan nan
nan nan nan nan nan nan nan nan nan nan nan nan nan nan nan nan nan nan nan nan nan nan nan nan nan nan nan 259 259 257 258 258 259 268 279 284 283 283 279 275 272 267 265 261 263 263 265 266 268 271 274 275 275 273 271 271 274 276 278 279 280 281 282 nan 281 nan nan nan nan nan nan nan nan nan nan nan nan nan nan nan nan nan nan nan nan nan
nan nan nan nan nan nan nan nan nan nan nan nan nan nan nan nan nan nan nan nan nan nan nan nan nan nan nan 262 261 262 265 271 276 278 276 278 290 292 289 283 282 279 270 266 258 257 262 265 266 271 273 275 274 274 273 272 272 274 276 278 280 280 nan nan nan nan nan nan nan nan nan nan nan nan nan nan nan nan nan nan nan nan nan nan nan nan
nan nan nan nan nan nan nan nan nan nan nan nan nan nan nan nan nan nan nan nan nan nan nan nan nan nan nan nan nan 266 271 278 282 289 288 287 284 281 284 282 277 278 277 273 266 265 263 263 264 267 268 268 267 269 271 271 272 272 275 276 277 277 nan nan nan nan nan nan nan nan nan nan nan nan nan nan nan nan nan nan nan nan nan nan nan nan
nan nan nan nan nan nan nan nan nan nan nan nan nan nan nan nan nan nan nan nan nan nan nan nan nan nan nan nan 258 265 269 273 280 283 283 280 274 274 274 276 279 277 276 276 275 273 266 261 260 260 262 261 264 264 264 266 268 270 272 273 275 276 278 nan nan nan nan nan nan nan nan nan nan nan nan nan nan nan nan nan nan nan nan nan nan nan
nan nan nan nan nan nan nan nan nan nan nan 222 214 214 nan nan nan nan nan nan nan nan nan nan nan nan nan nan 260 266 263 264 267 267 268 277 279 277 278 277 278 nan 282 281 nan 272 270 269 268 267 262 262 262 262 265 267 267 270 271 272 274 276 279 nan nan nan nan nan nan nan nan nan nan nan nan nan nan nan nan nan nan nan nan nan nan nan
nan nan nan nan nan nan nan nan nan nan 234 229 226 nan 219 211 nan nan nan nan nan nan nan nan nan nan nan nan 264 267 267 265 263 269 271 276 282 283 281 278 282 nan nan nan nan 269 270 270 270 268 265 263 262 265 266 267 268 270 271 273 275 277 279 nan nan nan nan nan nan nan nan nan nan nan nan nan nan nan nan nan nan nan nan nan nan nan
nan nan nan nan nan nan nan nan nan 233 232 235 235 227 231 nan nan nan nan nan nan nan nan nan nan nan nan nan nan 273 275 269 264 264 270 275 279 285 288 285 282 280 277 nan nan nan nan 265 263 262 262 260 263 267 267 267 269 270 271 274 275 278 nan nan nan nan nan nan nan nan nan nan nan nan nan nan nan nan nan nan nan nan nan nan nan nan
nan nan nan nan nan nan nan nan nan nan nan 239 nan nan nan nan nan nan nan nan nan nan nan nan nan nan nan nan nan nan 266 269 268 269 276 279 278 278 277 272 272 274 275 nan nan nan nan nan 264 265 265 267 267 268 268 269 270 272 273 275 277 278 nan nan nan nan nan nan nan nan nan nan nan nan nan nan nan nan nan nan nan nan nan nan nan nan
nan nan nan nan nan nan nan nan nan nan nan nan nan nan nan nan nan nan nan nan nan nan nan nan nan nan nan nan 253 258 262 267 271 273 278 281 281 280 279 275 272 274 273 nan nan nan 271 269 269 268 267 268 269 268 271 274 275 274 275 275 278 279 nan nan nan nan nan nan nan nan nan nan nan nan nan nan nan nan nan nan nan nan nan nan nan nan
nan nan nan nan nan nan nan nan nan nan 232 nan nan nan nan nan nan nan nan nan nan nan nan nan nan nan nan nan 259 263 266 264 272 268 275 279 281 279 273 271 273 271 269 nan nan nan nan 266 267 268 269 269 266 268 274 274 273 273 273 274 276 nan nan nan nan nan nan nan nan nan nan nan nan nan nan nan nan nan nan nan nan nan nan nan nan nan
nan nan nan nan nan nan nan nan nan nan nan nan nan nan nan nan nan nan nan nan 234 231 nan nan nan nan nan 251 262 260 260 247 247 259 275 276 277 274 271 274 273 272 nan nan nan nan nan 264 267 269 270 268 270 271 272 271 270 270 271 273 275 nan nan nan nan nan nan nan nan nan nan nan nan nan nan nan nan nan nan nan nan nan nan nan nan nan
nan nan nan nan nan nan nan nan nan nan 232 nan nan nan nan 243 234 nan 230 nan 226 226 225 221 nan nan nan nan 259 256 250 249 255 265 271 276 277 274 274 271 271 nan nan nan nan nan nan nan 263 265 268 268 272 271 269 270 269 271 272 274 nan nan nan nan nan nan nan nan nan nan nan nan nan nan nan nan nan nan nan nan nan nan nan nan nan nan
nan nan nan nan nan nan nan nan nan nan 232 234 nan 246 nan nan 227 nan 229 232 231 226 nan 221 224 nan nan 250 254 248 249 255 265 270 271 268 267 272 276 276 nan nan nan nan nan nan nan nan 267 268 267 266 268 265 265 268 270 271 272 275 nan nan nan nan nan nan nan nan nan nan nan nan nan nan nan nan nan nan nan nan nan nan nan nan nan nan
nan nan nan nan nan nan nan nan nan nan 242 241 nan nan nan 234 229 225 223 233 235 232 227 225 nan 223 226 248 248 250 252 259 262 264 266 266 267 269 271 276 nan nan nan nan nan nan nan nan 268 268 267 266 265 263 263 267 269 270 272 nan nan nan nan nan nan nan nan nan nan nan nan nan nan nan nan nan nan nan nan nan nan nan nan nan nan nan
nan nan 210 nan nan nan 222 nan nan 231 235 235 234 234 234 232 234 229 227 233 233 238 233 227 231 235 245 250 253 254 254 251 254 258 262 265 267 270 270 271 nan nan nan nan nan nan nan nan 274 271 271 266 267 263 263 265 268 271 nan nan nan nan nan nan nan nan nan nan nan nan nan nan nan nan nan nan nan nan nan nan nan nan nan nan nan nan
nan nan 225 207 nan nan nan 242 nan nan 242 235 228 230 233 236 235 232 233 233 236 235 238 235 241 245 251 253 253 252 251 250 253 258 262 266 269 269 269 nan nan nan nan nan nan nan nan nan 275 276 275 272 270 265 262 262 nan nan nan nan nan nan nan nan nan nan nan nan nan nan nan nan nan nan nan nan nan nan nan nan nan nan nan nan nan nan
nan nan 209 nan nan nan nan nan nan 245 nan 239 240 235 233 234 236 235 242 240 240 237 240 238 241 247 252 256 255 253 252 256 259 258 261 261 265 269 270 272 274 nan nan nan nan nan nan nan 283 282 279 276 271 266 262 nan nan nan nan nan nan nan nan nan nan nan nan nan nan nan nan nan nan nan nan nan nan nan nan nan nan nan nan nan nan nan
nan 201 nan nan nan nan nan 240 230 247 243 238 nan 242 233 245 243 244 245 247 245 242 240 241 244 251 252 254 255 254 255 256 263 263 266 267 267 271 270 267 272 278 nan nan nan nan nan nan 284 279 277 272 268 264 nan nan nan nan nan nan nan nan nan nan nan nan nan nan nan nan nan nan nan nan nan nan nan nan nan nan nan nan nan nan nan nan
225 219 nan nan nan nan nan 239 nan 230 nan nan nan nan 239 242 253 250 250 254 252 249 247 247 244 252 253 252 253 253 254 255 260 263 263 260 266 262 267 271 273 nan nan nan nan nan nan nan 279 277 273 269 266 nan nan nan nan nan nan nan nan nan nan nan nan nan nan nan nan nan nan nan nan nan nan nan nan nan nan nan nan nan nan nan nan nan
nan nan 215 nan nan nan nan nan 210 nan nan nan 229 230 245 246 239 248 250 250 254 256 251 252 251 249 255 258 255 255 254 251 256 259 260 261 266 270 275 274 nan nan nan nan nan nan nan 277 276 274 nan nan nan nan nan nan nan nan nan nan nan nan nan nan nan nan nan nan nan nan nan nan nan nan nan nan nan nan nan nan nan nan nan nan nan nan
214 218 nan 227 nan nan 225 229 240 244 244 nan 237 239 238 239 249 246 248 252 254 258 258 257 257 257 254 255 255 257 254 247 256 259 259 264 265 266 271 nan nan nan nan nan nan nan 275 274 nan nan nan nan nan nan nan nan nan nan nan nan nan nan nan nan nan nan nan nan nan nan nan nan nan nan nan nan nan nan nan nan nan nan nan nan nan nan